Torna al catalogo

CZ-6A DEB

AttivoSSO
NORAD 54281·DEBRIS·🇨🇳 China

Lanciato Nov 11, 2022 da Taiyuan Satellite Launch Center

Loading…

Prossimi Passaggi (prossime 24 ore)

TLE

AggiornatoSource: Space-Track

Epoca: Sep 14, 2026, 12:14 UTC

1 54281U 22151Y   26257.51027934  .00000183  00000-0  74392-4 0  9995
2 54281  98.5852 280.9228 0103169 111.8888 249.3305 14.35614926200543

Traccia CZ-6A DEB in tempo reale con AllMySat

Download on the App Store